Вернуться в каталог

STARLINK-3755

АктивенСвязьVLEO
NORAD 52307·PAYLOAD·🇺🇸 United States

Запущен Apr 21, 2022 с Cape Canaveral Space Force Station

Loading…

Ближайшие Пролёты (ближайшие 24 часа)

TLE

СвежийSource: CelesTrak SupGP

Эпоха: Sep 14, 2026, 21:02 UTC

1 52307C 22041AY  26257.87687500 -.00023327  00000+0 -68935-3 0  2578
2 52307  53.1577 317.6793 0001097  77.0188 302.0123 15.34395889    18

Отслеживайте STARLINK-3755 в реальном времени с AllMySat

Download on the App Store